Gwinn, MI

3:29 PM EST on November 21, 2017 (GMT -0500)
Sawyer International

Weather History for KSAW - January, 2013

Change the Weather History Date:

Tuesday, January 8, 2013

  Actual Average (KESC) Record (KESC)
Temperature  
Mean Temperature 25 °F -  
Max Temperature 35 °F 22 °F 51 °F (2003)
Min Temperature 15 °F 4 °F -17 °F (1968)
Degree Days  
Heating Degree Days 40    
Moisture  
Dew Point 24 °F    
Average Humidity 82    
Maximum Humidity 100    
Minimum Humidity 60    
Precipitation  
Precipitation 0.00 in - - ()
Sea Level Pressure  
Sea Level Pressure 29.90 in    
Wind  
Wind Speed 9 mph (SSW)    
Max Wind Speed 25 mph    
Max Gust Speed 33 mph    
Visibility 9 miles    
Events      
Averages and records for this station are not official NWS values.
T = Trace of Precipitation, MM = Missing Value Source: NWS Daily Summary

Daily Weather History Graph

Daily Weather History Graph

Search for Another Location

Airport or City:

Trip Planner

Search our weather history database for the weather conditions in past years. The results will help you decide how hot, cold, wet, or windy it might be!

Date:

Astronomy

Jan. 08, 2013 Rise Set
Actual Time 8:31 AM EST 5:21 PM EST
Civil Twilight 7:57 AM EST 5:55 PM EST
Nautical Twilight 7:19 AM EST 6:33 PM EST
Astronomical Twilight 6:43 AM EST 7:09 PM EST
Moon 5:03 AM EST (1/8) 2:23 PM EST (1/8)
Length of Visible Light 9h 58m
Length of Day
8h 49m
Waning Crescent, 14% of the Moon is Illuminated
Jan 8
Waning Crescent
Jan 11
New
Jan 18
First Quarter
Jan 26
Full
Feb 3
Last Quarter

Hourly Weather History & Observations

Time (EST) Temp. Windchill Dew Point Humidity Pressure Visibility Wind Dir Wind Speed Gust Speed Precip Events Conditions
12:17 AM 28.0 °F 20.0 °F 21.4 °F 76% 29.85 in 10.0 mi WSW 8.1 mph - N/A   Clear
12:37 AM 27.9 °F 20.6 °F 21.4 °F 77% 29.86 in 10.0 mi SW 6.9 mph - N/A   Clear
12:56 AM 27.0 °F 20.5 °F 21.0 °F 78% 29.86 in 10.0 mi WSW 5.8 mph - N/A   Clear
1:17 AM 26.6 °F 19.1 °F 21.2 °F 80% 29.87 in 10.0 mi WSW 6.9 mph - N/A   Clear
1:37 AM 27.0 °F 18.7 °F 21.2 °F 79% 29.87 in 10.0 mi WSW 8.1 mph - N/A   Clear
1:57 AM 27.1 °F 18.2 °F 21.4 °F 79% 29.88 in 10.0 mi WSW 9.2 mph - N/A   Clear
2:17 AM 26.6 °F 17.5 °F 21.2 °F 80% 29.88 in 10.0 mi WSW 9.2 mph - N/A   Clear
2:37 AM 26.4 °F 18.0 °F 21.2 °F 81% 29.89 in 10.0 mi WSW 8.1 mph - N/A   Clear
2:57 AM 26.4 °F 16.6 °F 21.2 °F 81% 29.90 in 10.0 mi WSW 10.4 mph - N/A   Clear
3:17 AM 26.6 °F 16.8 °F 21.6 °F 81% 29.90 in 10.0 mi WSW 10.4 mph - N/A   Clear
3:37 AM 27.3 °F 17.7 °F 21.9 °F 80% 29.91 in 10.0 mi WSW 10.4 mph - N/A   Clear
3:57 AM 27.5 °F 17.4 °F 22.1 °F 80% 29.91 in 10.0 mi West 11.5 mph - N/A   Clear
4:16 AM 27.5 °F 19.3 °F 22.1 °F 80% 29.91 in 10.0 mi West 8.1 mph - N/A   Clear
4:37 AM 27.9 °F - 22.1 °F 79% 29.92 in 10.0 mi Calm Calm - N/A   Clear
4:57 AM 27.9 °F - 22.1 °F 79% 29.93 in 10.0 mi Calm Calm - N/A   Clear
5:17 AM 27.3 °F - 21.7 °F 80% 29.94 in 10.0 mi Calm Calm - N/A   Clear
5:37 AM 26.4 °F - 21.9 °F 83% 29.95 in 10.0 mi Calm Calm - N/A   Clear
5:56 AM 26.2 °F 22.1 °F 21.6 °F 82% 29.95 in 10.0 mi SSW 3.5 mph - N/A   Clear
6:50 AM 23.0 °F 18.4 °F 19.4 °F 86% 29.97 in 10.0 mi SW 3.5 mph - N/A   Clear
7:50 AM 17.6 °F - 17.6 °F 100% 29.99 in 7.0 mi Calm Calm - N/A   Clear
8:50 AM 15.8 °F - 14.0 °F 93% 30.00 in 7.0 mi Calm Calm - N/A   Clear
9:50 AM 17.6 °F - 15.8 °F 93% 30.02 in 10.0 mi Calm Calm - N/A   Clear
11:50 AM 28.4 °F 21.2 °F 23.0 °F 80% 30.03 in 10.0 mi South 6.9 mph - N/A   Clear
12:50 PM 32.0 °F 25.6 °F 23.0 °F 69% 30.00 in 10.0 mi South 6.9 mph - N/A   Clear
1:50 PM 33.8 °F 25.8 °F 23.0 °F 65% 29.99 in 10.0 mi SSW 10.4 mph - N/A   Clear
2:50 PM 33.8 °F 25.8 °F 24.8 °F 70% 29.99 in 10.0 mi South 10.4 mph - N/A   Clear
3:55 PM 35.6 °F 29.2 °F 24.8 °F 65% 29.97 in 10.0 mi South 8.1 mph - N/A   Clear
4:50 PM 35.6 °F 28.0 °F 23.0 °F 60% 29.95 in 10.0 mi SSE 10.4 mph - N/A   Clear
5:50 PM 32.0 °F 21.6 °F 24.8 °F 75% 29.94 in 10.0 mi South 15.0 mph - N/A   Clear
6:50 PM 30.2 °F 18.1 °F 28.4 °F 93% 29.90 in 5.0 mi South 18.4 mph 24.2 mph N/A   Overcast
7:50 PM 32.0 °F 19.8 °F 30.2 °F 93% 29.87 in 5.0 mi South 20.7 mph 26.5 mph N/A   Overcast
8:50 PM 33.8 °F 21.6 °F 32.0 °F 93% 29.83 in 5.0 mi South 23.0 mph - N/A   Overcast
9:50 PM 33.8 °F 22.2 °F 32.0 °F 93% 29.79 in 5.0 mi South 20.7 mph 26.5 mph N/A   Overcast
10:16 PM 34.7 °F 22.5 °F 32.0 °F 90% 29.77 in 7.0 mi South 24.2 mph 31.1 mph N/A   Overcast
10:37 PM 34.9 °F 23.0 °F 31.8 °F 89% 29.77 in 7.0 mi South 23.0 mph - N/A   Overcast
10:57 PM 35.1 °F 22.7 °F 31.1 °F 85% 29.76 in 7.0 mi SSW 25.3 mph 33.4 mph N/A   Overcast
11:16 PM 34.9 °F 22.7 °F 31.1 °F 86% 29.76 in 7.0 mi SSW 24.2 mph 28.8 mph N/A   Overcast
11:37 PM 34.9 °F 22.7 °F 30.4 °F 84% 29.75 in 7.0 mi SSW 24.2 mph 28.8 mph N/A   Overcast
11:57 PM 34.7 °F 22.8 °F 29.8 °F 82% 29.74 in 7.0 mi SSW 23.0 mph 28.8 mph N/A   Overcast